sat.trackr.live / text

‹ back to catalog

STARLINK-30760

NORAD 58187 · 2023-167N

PAYLOAD ACTIVE UNKNOWN

§ Identity

Operator
Country
US
Launch date
2023-10-30
Launch site
AFETR
Launch vehicle
Mass (kg)
RCS (m²)

Purposes: comms

External: N2YO · Heavens-Above · Gunter

§ Orbital elements

Epoch: 2026-05-25T04:28:03.984672Z

Period
94.27 min
Inclination
43.0061°
Eccentricity
0.0000926
Mean motion
15.27576277 rev/d
Perigee alt
482.4 km
Apogee alt
483.7 km
Semi-major
6,861.2 km
B*
1.1331e-4
RAAN
71.4319°
Arg perigee
273.3967°
Mean anomaly
86.6778°
Rev number
14,268

§ Raw data

STARLINK-307601 58187U 23167N   26145.18615723  .00002857  00000+0  11331-3 0  99922 58187  43.0061  71.4319 0000926 273.3967  86.6778 15.27576277142686

JSON: /api/v1/satellites/58187 · /tle

For live sub-satellite position, see the globe view (requires WebGL).

§ Visibility from observer

Set your observer location to see the next 7 days of passes ≥ 10°. The values pass through the URL so the page stays shareable.

No JS? Fill the form by hand. The geolocation button needs JavaScript.